FW2308 Weather Reports


time (UTC)temp
F
wind
direction
speed
knots
gust
knots
rain 1hr
in
rain 24hr
in
rain mn
in
humidity
%
barometer
mb
20260504050023 55 231 0.0 0.0 0.00 0.00 0.00 56 1017.5
20260504044527 56 231 0.0 0.0 0.00 0.00 0.00 55 1017.5
20260504043017 58 231 0.0 0.0 0.00 0.00 0.00 53 1017.5
20260504041516 58 231 0.0 0.0 0.00 0.00 0.00 52 1017.6
20260504040013 58 231 0.0 0.9 0.00 0.00 0.00 52 1017.7
20260504034513 57 230 0.0 0.0 0.00 0.00 0.00 53 1017.6
20260504033013 57 230 0.0 0.9 0.00 0.00 0.00 53 1017.6
20260504030025 55 197 0.0 0.0 0.00 0.00 0.00 56 1017.5
20260504024508 55 210 0.0 0.0 0.00 0.00 0.00 57 1017.5
20260504023006 54 210 0.0 0.0 0.00 0.00 0.00 57 1017.5
20260504021505 55 210 0.0 0.0 0.00 0.00 0.00 58 1017.2
20260504020007 55 210 0.0 0.0 0.00 0.00 0.00 58 1016.8
20260504014605 56 210 0.0 0.0 0.00 0.00 0.00 56 1016.6
20260504013005 57 210 0.0 0.0 0.00 0.00 0.00 54 1016.5
20260504011502 58 210 0.0 0.0 0.00 0.00 0.00 52 1016.4
20260504010003 59 210 0.0 0.0 0.00 0.00 0.00 50 1016.3
20260504004505 60 210 0.0 0.0 0.00 0.00 0.00 48 1016.2
20260504003003 61 210 0.0 0.0 0.00 0.00 0.00 46 1016.1
20260504001613 63 210 0.0 0.0 0.00 0.00 0.00 43 1016.0
20260504000101 64 210 0.0 0.0 0.00 0.00 0.00 41 1015.8
20260503234559 66 210 0.0 0.0 0.00 0.00 0.00 39 1015.7
20260503233059 67 214 0.0 0.0 0.00 0.00 0.00 36 1015.8
20260503231558 68 166 0.0 0.9 0.00 0.00 0.00 35 1015.8
20260503224555 69 167 0.0 3.5 0.00 0.00 0.00 35 1016.0
20260503223058 69 208 0.9 3.5 0.00 0.00 0.00 35 1015.9
20260503221554 69 55 0.0 2.6 0.00 0.00 0.00 35 1016.0
20260503220051 70 297 0.0 2.6 0.00 0.00 0.00 35 1016.2
20260503214550 69 308 0.0 3.5 0.00 0.00 0.00 35 1016.4
20260503213103 69 123 0.0 3.5 0.00 0.00 0.00 35 1016.5
20260503211548 69 234 0.0 1.7 0.00 0.00 0.00 34 1016.6
20260503210056 70 300 0.0 2.6 0.00 0.00 0.00 32 1016.7
20260503204552 69 170 0.9 4.3 0.00 0.00 0.00 33 1016.8
20260503203046 69 176 0.0 3.5 0.00 0.00 0.00 35 1017.0
20260503201546 69 15 0.0 3.5 0.00 0.00 0.00 34 1017.2
20260503200051 69 304 0.0 3.5 0.00 0.00 0.00 32 1017.6
20260503194547 69 110 1.7 7.0 0.00 0.00 0.00 33 1017.7
20260503193052 70 160 0.0 4.3 0.00 0.00 0.00 35 1018.2
20260503191545 70 95 0.9 4.3 0.00 0.00 0.00 34 1018.4
20260503190043 70 165 0.0 4.3 0.00 0.00 0.00 35 1018.7
20260503184551 70 303 0.0 1.7 0.00 0.00 0.00 40 1019.0
20260503183058 70 169 0.0 8.7 0.00 0.00 0.00 41 1019.0
20260503181538 70 309 0.0 3.5 0.00 0.00 0.00 42 1019.2
20260503180041 66 39 0.9 6.1 0.00 0.00 0.00 48 1019.3
20260503174535 65 8 1.7 6.1 0.00 0.00 0.00 50 1019.3
20260503173054 64 129 1.7 5.2 0.00 0.00 0.00 47 1019.6
20260503171528 63 82 1.7 5.2 0.00 0.00 0.00 50 1019.7
20260503120111 56 226 0.0 0.0 0.00 0.00 0.00 70 1020.2
20260503081520 45 226 0.0 0.0 0.00 0.02 0.00 90 1017.5
20260503071511 47 226 0.0 0.0 0.00 0.02 0.00 92 1017.0